Regional Weather Roundup
Issued by NWS Green Bay, WI

Home | Current Version | Previous Version | Graphics & Text | Print | Product List | Glossary Off
Versions: 1 2 3 4 5 6 7 8 9 10 11 12 13 14 15 16 17 18 19 20 21 22 23 24 25 26 27 28 29 30 31 32 33 34 35 36 37 38 39 40 41 42 43 44 45 46 47 48 49 50

000
ASUS43 KGRB 291100
RWRGRB

NORTH-CENTRAL AND NORTHEAST WISCONSIN REGIONAL WEATHER ROUNDUP
NATIONAL WEATHER SERVICE GREEN BAY WI
600 AM CDT SAT APR 29 2017

WIZ005-009-010>012-018-019-291200-
NORTH CENTRAL WISCONSIN

CITY           SKY/WX    TMP DP  RH WIND       PRES   REMARKS
IRONWOOD       CLEAR     23  22  96 CALM      30.22R
MANITOWISH WTR NOT AVBL
ARBOR VITAE    NOT AVBL
EAGLE RIVER    NOT AVBL
LAND O LAKES   NOT AVBL
RHINELANDER    CLOUDY    30  25  81 CALM      30.21R
PHILLIPS       NOT AVBL
ANTIGO         NOT AVBL
TOMAHAWK       NOT AVBL
MERRILL        NOT AVBL
$$

WIZ013-073-291200-
NORTHEAST WISCONSIN

CITY           SKY/WX    TMP DP  RH WIND       PRES   REMARKS
IRON MOUNTAIN  CLEAR     27  22  81 S5        30.21R
MARINETTE      CLEAR     31  27  85 NW3       30.27R
$$

WIZ017-030-035>037-045-291200-
CENTRAL WISCONSIN

CITY           SKY/WX    TMP DP  RH WIND       PRES   REMARKS
MEDFORD        NOT AVBL
WAUSAU         PTCLDY    30  26  85 NE3       30.21R
MOSINEE        PTCLDY    28  27  93 NE3       30.24R
MARSHFIELD     CLOUDY    31  25  78 NE6       30.21R
WISC RAPIDS    CLEAR     33  26  75 NE6       30.23F
STEVENS POINT  NOT AVBL
WAUPACA        NOT AVBL
SHAWANO        NOT AVBL
CLINTONVILLE   NOT AVBL
WAUTOMA        PTCLDY    35  26  69 NE8       30.23F
$$

WIZ038-039-048-051-291200-
FOX VALLEY

CITY           SKY/WX    TMP DP  RH WIND       PRES   REMARKS
NWS GREEN BAY  CLEAR     35  29  78 N9        30.24R
APPLETON       NOT AVBL
OSHKOSH        CLOUDY    37  27  67 NE15      30.21R
FOND DU LAC    CLOUDY    39  28  64 NE21      30.21R
$$

WIZ022-050-052-291200-
EAST CENTRAL WISCONSIN

CITY           SKY/WX    TMP DP  RH WIND       PRES   REMARKS
EPHRAIM        NOT AVBL
WASHINGTON ISL NOT AVBL
STURGEON BAY   CLEAR     34  26  72 N8        30.25R
MANITOWOC      NOT AVBL
SHEBOYGAN      CLOUDY    37  31  78 N12G20    30.20R
$$

LMZ563-521-522-541>543-291200-
LAKESHORE

STATION/POSITION TIME  TEMP    WIND        PRES    VSBY  WAVE
                       AIR SEA DIR/SP/G                  HT/PER
                 (UTC) (F)     (DEG/KT/KT) (MB)    (MI)  (FT/S)
SHEBOYGAN LKSHOR 1000   40      20/ 22/ 24 1022.5R
KEWAUNEE LKSHORE 1030   36     350/  7/ 11 1023.4R
NORTHPORT PIER   1030   36      CALM  / 10 1025.4R
N MID LAKE BUOY  0950   36 37  360/ 12/ 14 1022.8R         2/ 4
CHAMBERS ISLAND  1030   36     340/  6/  8 1024.0R
MENOMINEE LKSHOR 1030   35     320/  5/  9 1023.9R
$$



USA.gov is the U.S. government's official web portal to all federal, state and local government web resources and services.